�_�E�����[�h���������F2022/06/01 18:26:50

,����,����,����,����,����,����,����,����,����
�N����,�Ő[�ϐ�(cm),�Ő[�ϐ�(cm),�Ő[�ϐ�(cm),�~��ʍ��v(cm),�~��ʍ��v(cm),�~��ʍ��v(cm),�~���ʂ̍��v(mm),�~���ʂ̍��v(mm),�~���ʂ̍��v(mm)
,,,,,,,,,
,,�i�����,�ώ��ԍ�,,�i�����,�ώ��ԍ�,,�i�����,�ώ��ԍ�
2012/6/1,0,8,1,0,8,1,11.5,8,1
2012/6/2,0,8,1,0,8,1,0.0,8,1
2012/6/3,0,8,1,0,8,1,9.0,8,1
2012/6/4,0,8,1,0,8,1,0.0,8,1
2012/6/5,0,8,1,0,8,1,0.0,8,1
2012/6/6,0,8,1,0,8,1,2.5,8,1
2012/6/7,0,8,1,0,8,1,0.0,8,1
2012/6/8,0,8,1,0,8,1,0.0,8,1
2012/6/9,0,8,1,0,8,1,12.0,8,1
2012/6/10,0,8,1,0,8,1,0.0,8,1
2012/6/11,0,8,1,0,8,1,0.0,8,1
2012/6/12,0,8,1,0,8,1,0.5,8,1
2012/6/13,0,8,1,0,8,1,0.0,8,1
2012/6/14,0,8,1,0,8,1,0.0,8,1
2012/6/15,0,8,1,0,8,1,0.0,8,1
2012/6/16,0,8,1,0,8,1,6.5,8,1
2012/6/17,0,8,1,0,8,1,8.5,8,1
2012/6/18,0,8,1,0,8,1,0.0,8,1
2012/6/19,0,8,1,0,8,1,11.5,8,1
2012/6/20,0,8,1,0,8,1,0.5,8,1
2012/6/21,0,8,1,0,8,1,0.0,8,1
2012/6/22,0,8,1,0,8,1,20.5,8,1
2012/6/23,0,8,1,0,8,1,0.0,8,1
2012/6/24,0,8,1,0,8,1,0.0,8,1
2012/6/25,0,8,1,0,8,1,0.0,8,1
2012/6/26,0,8,1,0,8,1,0.0,8,1
2012/6/27,0,8,1,0,8,1,0.0,8,1
2012/6/28,0,8,1,0,8,1,0.0,8,1
2012/6/29,0,8,1,0,8,1,0.0,8,1
2012/6/30,0,8,1,0,8,1,0.0,8,1
2012/7/1,0,8,1,0,8,1,6.5,8,1
2012/7/2,0,8,1,0,8,1,0.0,8,1
2012/7/3,0,8,1,0,8,1,1.0,8,1
2012/7/4,0,8,1,0,8,1,0.0,8,1
2012/7/5,0,8,1,0,8,1,0.0,8,1
2012/7/6,0,8,1,0,8,1,30.5,8,1
2012/7/7,0,8,1,0,8,1,56.5,8,1
2012/7/8,0,8,1,0,8,1,8.0,8,1
2012/7/9,0,8,1,0,8,1,0.0,8,1
2012/7/10,0,8,1,0,8,1,0.0,8,1
2012/7/11,0,8,1,0,8,1,0.0,8,1
2012/7/12,0,8,1,0,8,1,8.0,8,1
2012/7/13,0,8,1,0,8,1,0.0,8,1
2012/7/14,0,8,1,0,8,1,19.5,8,1
2012/7/15,0,8,1,0,8,1,5.5,8,1
2012/7/16,0,8,1,0,8,1,0.0,8,1
2012/7/17,0,8,1,0,8,1,0.0,8,1
2012/7/18,0,8,1,0,8,1,0.0,8,1
2012/7/19,0,8,1,0,8,1,0.0,8,1
2012/7/20,0,8,1,0,8,1,6.0,8,1
2012/7/21,0,8,1,0,8,1,37.5,8,1
2012/7/22,0,8,1,0,8,1,0.5,8,1
2012/7/23,0,8,1,0,8,1,0.0,8,1
2012/7/24,0,8,1,0,8,1,0.0,8,1
2012/7/25,0,8,1,0,8,1,0.0,8,1
2012/7/26,0,8,1,0,8,1,0.0,8,1
2012/7/27,0,8,1,0,8,1,2.0,8,1
2012/7/28,0,8,1,0,8,1,0.5,8,1
2012/7/29,0,8,1,0,8,1,9.5,8,1
2012/7/30,0,8,1,0,8,1,3.5,8,1
2012/7/31,0,8,1,0,8,1,0.0,8,1
2012/8/1,0,8,1,0,8,1,0.0,8,1
2012/8/2,0,8,1,0,8,1,4.5,8,1
2012/8/3,0,8,1,0,8,1,0.0,8,1
2012/8/4,0,8,1,0,8,1,0.0,8,1
2012/8/5,0,8,1,0,8,1,0.0,8,1
2012/8/6,0,8,1,0,8,1,2.0,8,1
2012/8/7,0,8,1,0,8,1,0.5,8,1
2012/8/8,0,8,1,0,8,1,0.0,8,1
2012/8/9,0,8,1,0,8,1,0.0,8,1
2012/8/10,0,8,1,0,8,1,0.0,8,1
2012/8/11,0,8,1,0,8,1,3.5,8,1
2012/8/12,0,8,1,0,8,1,1.0,8,1
2012/8/13,0,8,1,0,8,1,1.5,8,1
2012/8/14,0,8,1,0,8,1,24.0,8,1
2012/8/15,0,8,1,0,8,1,1.5,8,1
2012/8/16,0,8,1,0,8,1,0.0,8,1
2012/8/17,0,8,1,0,8,1,8.0,8,1
2012/8/18,0,8,1,0,8,1,0.5,8,1
2012/8/19,0,8,1,0,8,1,0.0,8,1
2012/8/20,0,8,1,0,8,1,0.0,8,1
2012/8/21,0,8,1,0,8,1,0.0,8,1
2012/8/22,0,8,1,0,8,1,0.0,8,1
2012/8/23,0,8,1,0,8,1,4.0,8,1
2012/8/24,0,8,1,0,8,1,0.0,8,1
2012/8/25,0,8,1,0,8,1,0.0,8,1
2012/8/26,0,8,1,0,8,1,0.0,8,1
2012/8/27,0,8,1,0,8,1,0.0,8,1
2012/8/28,0,8,1,0,8,1,0.0,8,1
2012/8/29,0,8,1,0,8,1,0.0,8,1
2012/8/30,0,8,1,0,8,1,0.0,8,1
2012/8/31,0,8,1,0,8,1,0.0,8,1
2012/9/1,0,8,1,0,8,1,0.0,8,1
2012/9/2,0,8,1,0,8,1,0.0,8,1
2012/9/3,0,8,1,0,8,1,1.0,8,1
2012/9/4,0,8,1,0,8,1,3.0,8,1
2012/9/5,0,8,1,0,8,1,0.0,8,1
2012/9/6,0,8,1,0,8,1,2.5,8,1
2012/9/7,0,8,1,0,8,1,0.0,8,1
2012/9/8,0,8,1,0,8,1,0.5,8,1
2012/9/9,0,8,1,0,8,1,0.5,8,1
2012/9/10,0,8,1,0,8,1,0.0,8,1
2012/9/11,0,8,1,0,8,1,11.0,8,1
2012/9/12,0,8,1,0,8,1,0.0,8,1
2012/9/13,0,8,1,0,8,1,0.0,8,1
2012/9/14,0,8,1,0,8,1,0.0,8,1
2012/9/15,0,8,1,0,8,1,0.0,8,1
2012/9/16,0,8,1,0,8,1,0.0,8,1
2012/9/17,0,8,1,0,8,1,0.0,8,1
2012/9/18,0,8,1,0,8,1,0.5,8,1
2012/9/19,0,8,1,0,8,1,13.5,8,1
2012/9/20,0,8,1,0,8,1,10.5,8,1
2012/9/21,0,8,1,0,8,1,6.0,8,1
2012/9/22,0,8,1,0,8,1,0.0,8,1
2012/9/23,0,8,1,0,8,1,17.5,8,1
2012/9/24,0,8,1,0,8,1,2.5,8,1
2012/9/25,0,8,1,0,8,1,0.0,8,1
2012/9/26,0,8,1,0,8,1,0.0,8,1
2012/9/27,0,8,1,0,8,1,0.0,8,1
2012/9/28,0,8,1,0,8,1,0.0,8,1
2012/9/29,0,8,1,0,8,1,0.0,8,1
2012/9/30,0,8,1,0,8,1,61.5,8,1
2012/10/1,0,8,1,0,8,1,2.0,8,1
2012/10/2,0,8,1,0,8,1,8.0,8,1
2012/10/3,0,8,1,0,8,1,4.5,8,1
2012/10/4,0,8,1,0,8,1,0.5,8,1
2012/10/5,0,8,1,0,8,1,0.0,8,1
2012/10/6,0,8,1,0,8,1,5.5,8,1
2012/10/7,0,8,1,0,8,1,3.5,8,1
2012/10/8,0,8,1,0,8,1,0.0,8,1
2012/10/9,0,8,1,0,8,1,0.0,8,1
2012/10/10,0,8,1,0,8,1,0.0,8,1
2012/10/11,0,8,1,0,8,1,0.5,8,1
2012/10/12,0,8,1,0,8,1,0.0,8,1
2012/10/13,0,8,1,0,8,1,0.0,8,1
2012/10/14,0,8,1,0,8,1,0.0,8,1
2012/10/15,0,8,1,0,5,1,0.0,8,1
2012/10/16,0,8,1,0,8,1,0.0,8,1
2012/10/17,0,8,1,0,8,1,21.5,8,1
2012/10/18,0,8,1,0,8,1,1.5,8,1
2012/10/19,0,8,1,0,8,1,0.0,8,1
2012/10/20,0,8,1,0,8,1,0.0,8,1
2012/10/21,0,8,1,0,8,1,0.0,8,1
2012/10/22,0,8,1,0,8,1,0.0,8,1
2012/10/23,0,8,1,0,8,1,14.0,8,1
2012/10/24,0,8,1,0,8,1,0.5,8,1
2012/10/25,0,8,1,0,8,1,0.0,8,1
2012/10/26,0,8,1,0,8,1,0.0,8,1
2012/10/27,0,8,1,0,8,1,0.0,8,1
2012/10/28,0,8,1,0,8,1,7.0,8,1
2012/10/29,0,8,1,0,8,1,2.0,8,1
2012/10/30,0,8,1,0,8,1,0.5,8,1
2012/10/31,0,8,1,0,8,1,0.5,8,1
2012/11/1,0,8,1,0,8,1,1.5,8,1
2012/11/2,0,8,1,0,8,1,14.0,8,1
2012/11/3,0,8,1,0,8,1,4.5,8,1
2012/11/4,0,8,1,0,8,1,0.0,8,1
2012/11/5,0,8,1,0,8,1,0.0,8,1
2012/11/6,0,8,1,0,8,1,2.0,8,1
2012/11/7,0,8,1,0,8,1,0.5,8,1
2012/11/8,0,8,1,0,8,1,10.0,8,1
2012/11/9,0,8,1,0,8,1,9.0,8,1
2012/11/10,0,8,1,0,8,1,4.0,8,1
2012/11/11,0,8,1,0,8,1,8.0,8,1
2012/11/12,0,8,1,0,8,1,3.0,8,1
2012/11/13,0,8,1,0,8,1,1.0,8,1
2012/11/14,0,8,1,0,8,1,4.5,8,1
2012/11/15,9,8,1,10,8,1,32.5,8,1
2012/11/16,7,8,1,2,8,1,0.5,8,1
2012/11/17,3,8,1,2,8,1,10.5,8,1
2012/11/18,0,8,1,0,8,1,10.0,8,1
2012/11/19,0,8,1,0,8,1,0.0,8,1
2012/11/20,0,8,1,0,8,1,4.5,8,1
2012/11/21,0,8,1,0,8,1,0.5,8,1
2012/11/22,0,8,1,0,8,1,0.0,8,1
2012/11/23,0,8,1,0,8,1,0.0,8,1
2012/11/24,0,8,1,0,8,1,0.5,8,1
2012/11/25,0,8,1,0,8,1,0.0,8,1
2012/11/26,0,8,1,0,8,1,5.5,8,1
2012/11/27,7,8,1,9,8,1,2.0,8,1
2012/11/28,7,8,1,2,8,1,0.0,8,1
2012/11/29,0,8,1,0,8,1,0.5,8,1
2012/11/30,0,8,1,0,8,1,0.0,8,1
2012/12/1,6,8,1,6,8,1,0.5,8,1
2012/12/2,5,8,1,1,8,1,0.0,8,1
2012/12/3,0,8,1,0,8,1,0.0,8,1
2012/12/4,0,8,1,0,8,1,3.5,8,1
2012/12/5,0,8,1,0,8,1,0.0,8,1
2012/12/6,0,8,1,0,8,1,0.5,8,1
2012/12/7,0,8,1,0,8,1,0.0,8,1
2012/12/8,1,8,1,1,8,1,1.0,8,1
2012/12/9,53,8,1,54,8,1,24.0,8,1
2012/12/10,105,8,1,58,8,1,62.0,8,1
2012/12/11,108,8,1,27,8,1,13.5,8,1
2012/12/12,129,8,1,28,8,1,25.5,8,1
2012/12/13,130,8,1,4,8,1,11.0,8,1
2012/12/14,109,8,1,0,8,1,0.0,8,1
2012/12/15,98,8,1,4,8,1,1.0,8,1
2012/12/16,83,8,1,0,8,1,3.5,8,1
2012/12/17,58,8,1,3,8,1,1.0,8,1
2012/12/18,53,8,1,2,8,1,0.5,8,1
2012/12/19,55,8,1,12,8,1,1.5,8,1
2012/12/20,68,8,1,20,8,1,5.5,8,1
2012/12/21,69,8,1,1,8,1,1.0,8,1
2012/12/22,63,8,1,8,8,1,3.5,8,1
2012/12/23,56,8,1,8,8,1,1.0,8,1
2012/12/24,63,8,1,12,8,1,3.5,8,1
2012/12/25,61,8,1,4,8,1,1.0,8,1
2012/12/26,77,8,1,20,8,1,7.0,8,1
2012/12/27,73,8,1,1,8,1,0.0,8,1
2012/12/28,76,8,1,14,8,1,6.0,8,1
2012/12/29,79,8,1,4,8,1,2.5,8,1
2012/12/30,65,8,1,3,8,1,11.0,8,1
2012/12/31,57,8,1,5,8,1,1.0,8,1
2013/1/1,54,8,1,3,8,1,0.0,8,1
2013/1/2,59,8,1,8,8,1,0.5,8,1
2013/1/3,84,8,1,26,8,1,12.5,8,1
2013/1/4,94,8,1,12,8,1,7.0,8,1
2013/1/5,88,8,1,2,8,1,0.0,8,1
2013/1/6,82,8,1,3,8,1,0.5,8,1
2013/1/7,79,8,1,0,8,1,0.0,8,1
2013/1/8,73,8,1,1,8,1,0.0,8,1
2013/1/9,67,8,1,0,8,1,0.0,8,1
2013/1/10,70,8,1,8,8,1,0.5,8,1
2013/1/11,76,8,1,9,8,1,1.5,8,1
2013/1/12,72,8,1,3,8,1,0.0,8,1
2013/1/13,69,8,1,0,8,1,0.0,8,1
2013/1/14,89,8,1,25,8,1,17.5,8,1
2013/1/15,108,8,1,22,8,1,13.0,8,1
2013/1/16,104,8,1,1,8,1,0.0,8,1
2013/1/17,112,8,1,19,8,1,1.5,8,1
2013/1/18,162,8,1,52,8,1,24.5,8,1
2013/1/19,165,8,1,18,8,1,3.5,8,1
2013/1/20,183,8,1,23,8,1,4.5,8,1
2013/1/21,165,8,1,0,8,1,0.0,8,1
2013/1/22,146,8,1,3,8,1,1.0,8,1
2013/1/23,136,8,1,0,8,1,0.5,8,1
2013/1/24,128,8,1,4,8,1,2.5,8,1
2013/1/25,133,8,1,9,8,1,0.5,8,1
2013/1/26,160,8,1,37,8,1,14.0,8,1
2013/1/27,167,8,1,12,8,1,7.5,8,1
2013/1/28,156,8,1,7,8,1,2.5,8,1
2013/1/29,166,8,1,12,8,1,4.5,8,1
2013/1/30,158,8,1,1,8,1,1.0,8,1
2013/1/31,146,8,1,0,8,1,0.0,8,1
2013/2/1,141,8,1,2,8,1,0.0,8,1
2013/2/2,136,8,1,1,8,1,0.5,8,1
2013/2/3,126,8,1,6,8,1,0.5,8,1
2013/2/4,123,8,1,3,8,1,6.5,8,1
2013/2/5,117,8,1,0,8,1,1.0,8,1
2013/2/6,125,8,1,10,8,1,7.0,8,1
2013/2/7,123,8,1,6,8,1,0.0,8,1
2013/2/8,141,8,1,24,8,1,6.0,8,1
2013/2/9,140,8,1,0,8,1,0.0,8,1
2013/2/10,130,8,1,4,8,1,0.0,8,1
2013/2/11,150,8,1,23,8,1,10.0,8,1
2013/2/12,147,8,1,2,8,1,0.0,8,1
2013/2/13,147,8,1,12,8,1,5.0,8,1
2013/2/14,145,8,1,2,8,1,0.0,8,1
2013/2/15,153,8,1,21,8,1,7.0,8,1
2013/2/16,179,8,1,28,8,1,15.5,8,1
2013/2/17,177,8,1,2,8,1,2.0,8,1
2013/2/18,165,8,1,2,8,1,5.5,8,1
2013/2/19,162,8,1,6,8,1,2.0,8,1
2013/2/20,167,8,1,15,8,1,5.0,8,1
2013/2/21,177,8,1,14,8,1,8.0,8,1
2013/2/22,186,8,1,26,8,1,9.5,8,1
2013/2/23,190,8,1,7,8,1,4.5,8,1
2013/2/24,231,8,1,48,8,1,29.5,8,1
2013/2/25,230,8,1,4,8,1,4.0,8,1
2013/2/26,219,8,1,0,8,1,0.0,8,1
2013/2/27,198,8,1,0,8,1,0.0,8,1
2013/2/28,183,8,1,1,8,1,1.0,8,1
2013/3/1,169,8,1,0,8,1,4.5,8,1
2013/3/2,188,8,1,29,8,1,12.5,8,1
2013/3/3,187,8,1,4,8,1,1.0,8,1
2013/3/4,172,8,1,3,8,1,0.0,8,1
2013/3/5,165,8,1,4,8,1,0.0,8,1
2013/3/6,162,8,1,2,8,1,0.0,8,1
2013/3/7,157,8,1,0,8,1,0.0,8,1
2013/3/8,152,8,1,4,8,1,1.0,8,1
2013/3/9,146,8,1,3,8,1,6.0,8,1
2013/3/10,138,8,1,3,8,1,0.5,8,1
2013/3/11,140,8,1,7,8,1,1.0,8,1
2013/3/12,136,8,1,2,8,1,0.0,8,1
2013/3/13,132,8,1,3,8,1,2.0,8,1
2013/3/14,127,8,1,5,8,1,0.5,8,1
2013/3/15,126,8,1,2,8,1,0.0,8,1
2013/3/16,122,8,1,1,8,1,3.5,8,1
2013/3/17,116,8,1,4,8,1,0.0,8,1
2013/3/18,111,8,1,3,8,1,0.0,8,1
2013/3/19,106,8,1,4,8,1,0.0,8,1
2013/3/20,97,8,1,2,8,1,0.5,8,1
2013/3/21,97,8,1,7,8,1,1.0,8,1
2013/3/22,94,8,1,5,8,1,0.0,8,1
2013/3/23,88,8,1,5,8,1,0.5,8,1
2013/3/24,82,8,1,1,8,1,0.0,8,1
2013/3/25,80,8,1,8,8,1,1.0,8,1
2013/3/26,81,8,1,4,8,1,0.5,8,1
2013/3/27,76,8,1,1,8,1,0.0,8,1
2013/3/28,75,8,1,4,8,1,0.0,8,1
2013/3/29,65,8,1,2,8,1,0.0,8,1
2013/3/30,56,8,1,3,8,1,0.0,8,1
2013/3/31,53,8,1,9,8,1,1.0,8,1
2013/4/1,49,8,1,4,8,1,0.0,8,1
2013/4/2,46,8,1,4,8,1,5.5,8,1
2013/4/3,41,8,1,2,8,1,18.5,8,1
2013/4/4,34,8,1,2,8,1,0.0,8,1
2013/4/5,27,8,1,5,8,1,0.0,8,1
2013/4/6,17,8,1,2,8,1,24.0,8,1
2013/4/7,4,8,1,4,8,1,7.0,8,1
2013/4/8,2,8,1,1,8,1,0.5,8,1
2013/4/9,0,8,1,0,8,1,0.0,8,1
2013/4/10,0,8,1,0,8,1,3.0,8,1
2013/4/11,0,8,1,0,8,1,0.5,8,1
2013/4/12,0,8,1,0,8,1,0.5,8,1
2013/4/13,0,8,1,0,8,1,0.0,8,1
2013/4/14,0,8,1,0,8,1,0.0,8,1
2013/4/15,0,8,1,0,8,1,0.0,8,1
2013/4/16,0,8,1,0,8,1,0.0,8,1
2013/4/17,0,8,1,0,8,1,0.0,8,1
2013/4/18,0,8,1,0,8,1,0.0,8,1
2013/4/19,0,8,1,0,8,1,0.0,8,1
2013/4/20,2,8,1,2,8,1,9.0,8,1
2013/4/21,7,8,1,10,8,1,13.0,8,1
2013/4/22,3,8,1,4,8,1,0.5,8,1
2013/4/23,0,8,1,0,8,1,0.0,8,1
2013/4/24,0,8,1,0,8,1,6.0,8,1
2013/4/25,0,8,1,0,8,1,0.0,8,1
2013/4/26,0,8,1,0,8,1,8.0,8,1
2013/4/27,0,8,1,0,8,1,21.0,8,1
2013/4/28,0,8,1,0,8,1,7.5,8,1
2013/4/29,0,8,1,0,8,1,0.0,8,1
2013/4/30,0,8,1,0,8,1,0.0,8,1
2013/5/1,0,8,1,0,8,1,0.5,8,1
2013/5/2,0,8,1,0,8,1,1.5,8,1
2013/5/3,0,8,1,0,8,1,0.0,8,1
2013/5/4,0,8,1,0,8,1,0.0,8,1
2013/5/5,0,8,1,0,8,1,0.0,8,1
2013/5/6,0,8,1,0,8,1,0.0,8,1
2013/5/7,0,8,1,0,8,1,4.0,8,1
2013/5/8,0,8,1,0,8,1,0.0,8,1
2013/5/9,0,8,1,0,8,1,0.0,8,1
2013/5/10,0,8,1,0,8,1,0.5,8,1
2013/5/11,0,8,1,0,8,1,14.0,8,1
2013/5/12,0,8,1,0,8,1,2.0,8,1
2013/5/13,0,8,1,0,8,1,0.0,8,1
2013/5/14,0,8,1,0,8,1,0.0,8,1
2013/5/15,0,8,1,0,8,1,1.5,8,1
2013/5/16,0,8,1,0,8,1,0.0,8,1
2013/5/17,0,8,1,0,8,1,0.0,8,1
2013/5/18,0,8,1,0,8,1,0.0,8,1
2013/5/19,0,8,1,0,8,1,5.5,8,1
2013/5/20,0,8,1,0,8,1,0.5,8,1
2013/5/21,0,8,1,0,8,1,0.0,8,1
2013/5/22,0,8,1,0,8,1,0.0,8,1
2013/5/23,0,8,1,0,8,1,0.0,8,1
2013/5/24,0,8,1,0,8,1,0.0,8,1
2013/5/25,0,8,1,0,8,1,0.0,8,1
2013/5/26,0,8,1,0,8,1,0.0,8,1
2013/5/27,0,8,1,0,8,1,0.0,8,1
2013/5/28,0,8,1,0,8,1,0.0,8,1
2013/5/29,0,8,1,0,8,1,4.5,8,1
2013/5/30,0,8,1,0,8,1,6.5,8,1
2013/5/31,0,8,1,0,8,1,0.0,8,1
2013/6/1,0,8,1,0,8,1,0.0,8,1
2013/6/2,0,8,1,0,8,1,0.0,8,1
2013/6/3,0,8,1,0,8,1,0.0,8,1
2013/6/4,0,8,1,0,8,1,0.0,8,1
2013/6/5,0,8,1,0,8,1,0.0,8,1
2013/6/6,0,8,1,0,8,1,0.0,8,1
2013/6/7,0,8,1,0,8,1,5.0,8,1
2013/6/8,0,8,1,0,8,1,4.5,8,1
2013/6/9,0,8,1,0,8,1,0.0,8,1
2013/6/10,0,8,1,0,8,1,0.0,8,1
2013/6/11,0,8,1,0,8,1,0.0,8,1
2013/6/12,0,8,1,0,8,1,0.5,8,1
2013/6/13,0,8,1,0,8,1,0.0,8,1
2013/6/14,0,8,1,0,8,1,0.5,8,1
2013/6/15,0,8,1,0,8,1,17.5,8,1
2013/6/16,0,8,1,0,8,1,3.5,8,1
2013/6/17,0,8,1,0,8,1,0.0,8,1
2013/6/18,0,8,1,0,8,1,2.0,8,1
2013/6/19,0,8,1,0,8,1,18.0,8,1
2013/6/20,0,8,1,0,8,1,0.5,8,1
2013/6/21,0,8,1,0,8,1,6.5,8,1
2013/6/22,0,8,1,0,8,1,12.5,8,1
2013/6/23,0,8,1,0,8,1,3.5,8,1
2013/6/24,0,8,1,0,8,1,13.5,8,1
2013/6/25,0,8,1,0,8,1,0.5,8,1
2013/6/26,0,8,1,0,8,1,14.0,8,1
2013/6/27,0,8,1,0,8,1,0.5,8,1
2013/6/28,0,8,1,0,8,1,1.5,8,1
2013/6/29,0,8,1,0,8,1,0.0,8,1
2013/6/30,0,8,1,0,8,1,0.0,8,1
2013/7/1,0,8,1,0,8,1,0.0,8,1
2013/7/2,0,8,1,0,8,1,0.0,8,1
2013/7/3,0,8,1,0,8,1,4.0,8,1
2013/7/4,0,8,1,0,8,1,1.0,8,1
2013/7/5,0,8,1,0,8,1,5.0,8,1
2013/7/6,0,8,1,0,8,1,2.5,8,1
2013/7/7,0,8,1,0,8,1,13.5,8,1
2013/7/8,0,8,1,0,8,1,0.0,8,1
2013/7/9,0,8,1,0,8,1,0.5,8,1
2013/7/10,0,8,1,0,8,1,0.0,8,1
2013/7/11,0,8,1,0,8,1,0.0,8,1
2013/7/12,0,8,1,0,8,1,0.0,8,1
2013/7/13,0,8,1,0,8,1,0.5,8,1
2013/7/14,0,8,1,0,8,1,2.0,8,1
2013/7/15,0,8,1,0,8,1,5.0,8,1
2013/7/16,0,8,1,0,8,1,0.0,8,1
2013/7/17,0,8,1,0,8,1,13.5,8,1
2013/7/18,0,8,1,0,8,1,7.0,8,1
2013/7/19,0,8,1,0,8,1,0.0,8,1
2013/7/20,0,8,1,0,8,1,0.0,8,1
2013/7/21,0,8,1,0,8,1,0.0,8,1
2013/7/22,0,8,1,0,8,1,8.5,8,1
2013/7/23,0,8,1,0,8,1,12.5,8,1
2013/7/24,0,8,1,0,8,1,15.0,8,1
2013/7/25,0,8,1,0,8,1,6.0,8,1
2013/7/26,0,8,1,0,8,1,25.0,8,1
2013/7/27,0,8,1,0,8,1,13.0,8,1
2013/7/28,0,8,1,0,8,1,5.5,8,1
2013/7/29,0,8,1,0,8,1,14.5,8,1
2013/7/30,0,8,1,0,8,1,0.5,8,1
2013/7/31,0,8,1,0,8,1,0.5,8,1
2013/8/1,0,8,1,0,8,1,65.0,8,1
2013/8/2,0,8,1,0,8,1,5.0,8,1
2013/8/3,0,8,1,0,8,1,0.0,8,1
2013/8/4,0,8,1,0,8,1,0.5,8,1
2013/8/5,0,8,1,0,8,1,3.5,8,1
2013/8/6,0,8,1,0,8,1,10.0,8,1
2013/8/7,0,8,1,0,8,1,0.0,8,1
2013/8/8,0,8,1,0,8,1,0.0,8,1
2013/8/9,0,8,1,0,8,1,0.0,8,1
2013/8/10,0,8,1,0,8,1,0.0,8,1
2013/8/11,0,8,1,0,8,1,0.0,8,1
2013/8/12,0,8,1,0,8,1,0.0,8,1
2013/8/13,0,8,1,0,8,1,0.0,8,1
2013/8/14,0,8,1,0,8,1,0.0,8,1
2013/8/15,0,8,1,0,8,1,0.0,8,1
2013/8/16,0,8,1,0,8,1,21.0,8,1
2013/8/17,0,8,1,0,8,1,0.0,8,1
2013/8/18,0,8,1,0,8,1,0.0,8,1
2013/8/19,0,8,1,0,8,1,0.0,8,1
2013/8/20,0,8,1,0,8,1,14.5,8,1
2013/8/21,0,8,1,0,8,1,24.0,8,1
2013/8/22,0,8,1,0,8,1,2.5,8,1
2013/8/23,0,8,1,0,8,1,76.5,8,1
2013/8/24,0,8,1,0,8,1,5.0,8,1
2013/8/25,0,8,1,0,8,1,0.5,8,1
2013/8/26,0,8,1,0,8,1,1.5,8,1
2013/8/27,0,8,1,0,8,1,13.0,8,1
2013/8/28,0,8,1,0,8,1,0.0,8,1
2013/8/29,0,8,1,0,8,1,0.0,8,1
2013/8/30,0,8,1,0,8,1,4.5,8,1
2013/8/31,0,8,1,0,8,1,20.0,8,1
2013/9/1,0,8,1,0,8,1,2.5,8,1
2013/9/2,0,8,1,0,8,1,11.0,8,1
2013/9/3,0,8,1,0,8,1,0.5,8,1
2013/9/4,0,8,1,0,8,1,14.5,8,1
2013/9/5,0,8,1,0,8,1,26.0,8,1
2013/9/6,0,8,1,0,8,1,0.0,8,1
2013/9/7,0,8,1,0,8,1,14.0,8,1
2013/9/8,0,8,1,0,8,1,30.5,8,1
2013/9/9,0,8,1,0,8,1,0.0,8,1
2013/9/10,0,8,1,0,8,1,0.0,8,1
2013/9/11,0,8,1,0,8,1,0.0,8,1
2013/9/12,0,8,1,0,8,1,0.5,8,1
2013/9/13,0,8,1,0,8,1,3.5,8,1
2013/9/14,0,8,1,0,8,1,0.0,8,1
2013/9/15,0,8,1,0,8,1,7.0,8,1
2013/9/16,0,8,1,0,8,1,84.5,8,1
2013/9/17,0,8,1,0,8,1,0.0,8,1
2013/9/18,0,8,1,0,8,1,0.0,8,1
2013/9/19,0,8,1,0,8,1,0.0,8,1
2013/9/20,0,8,1,0,8,1,0.0,8,1
2013/9/21,0,8,1,0,8,1,0.0,8,1
2013/9/22,0,8,1,0,8,1,0.0,8,1
2013/9/23,0,8,1,0,8,1,0.5,8,1
2013/9/24,0,8,1,0,8,1,0.0,8,1
2013/9/25,0,8,1,0,8,1,0.5,8,1
2013/9/26,0,8,1,0,8,1,0.0,8,1
2013/9/27,0,8,1,0,8,1,0.0,8,1
2013/9/28,0,8,1,0,8,1,0.0,8,1
2013/9/29,0,8,1,0,8,1,0.0,8,1
2013/9/30,0,8,1,0,8,1,0.0,8,1
2013/10/1,0,8,1,0,8,1,0.0,8,1
2013/10/2,0,8,1,0,8,1,0.0,8,1
2013/10/3,0,8,1,0,8,1,6.0,8,1
2013/10/4,0,8,1,0,8,1,1.0,8,1
2013/10/5,0,8,1,0,8,1,8.0,8,1
2013/10/6,0,8,1,0,8,1,0.0,8,1
2013/10/7,0,8,1,0,8,1,0.0,8,1
2013/10/8,0,8,1,0,8,1,0.0,8,1
2013/10/9,0,8,1,0,8,1,0.5,8,1
2013/10/10,0,8,1,0,8,1,0.0,8,1
2013/10/11,0,8,1,0,8,1,0.5,8,1
2013/10/12,0,8,1,0,8,1,3.0,8,1
2013/10/13,0,8,1,0,8,1,0.5,8,1
2013/10/14,0,8,1,0,8,1,0.0,8,1
2013/10/15,0,8,1,0,8,1,24.5,8,1
2013/10/16,0,8,1,0,8,1,62.0,8,1
2013/10/17,0,8,1,0,8,1,7.5,8,1
2013/10/18,0,8,1,0,8,1,0.0,8,1
2013/10/19,0,8,1,0,8,1,0.0,8,1
2013/10/20,0,8,1,0,8,1,22.5,8,1
2013/10/21,0,8,1,0,8,1,0.0,8,1
2013/10/22,0,8,1,0,8,1,0.5,8,1
2013/10/23,0,8,1,0,8,1,0.0,8,1
2013/10/24,0,8,1,0,8,1,3.0,8,1
2013/10/25,0,8,1,0,8,1,26.5,8,1
2013/10/26,0,8,1,0,8,1,22.0,8,1
2013/10/27,0,8,1,0,8,1,12.5,8,1
2013/10/28,0,8,1,0,8,1,0.0,8,1
2013/10/29,0,8,1,0,8,1,3.0,8,1
2013/10/30,0,8,1,0,8,1,2.5,8,1
2013/10/31,0,8,1,0,8,1,0.0,8,1
2013/11/1,0,8,1,0,5,1,0.0,8,1
2013/11/2,0,8,1,0,8,1,0.0,8,1
2013/11/3,0,8,1,0,8,1,3.5,8,1
2013/11/4,0,8,1,0,8,1,5.5,8,1
2013/11/5,0,8,1,0,8,1,1.0,8,1
2013/11/6,0,8,1,0,8,1,0.0,8,1
2013/11/7,0,8,1,0,8,1,8.0,8,1
2013/11/8,0,8,1,0,8,1,5.0,8,1
2013/11/9,0,8,1,0,8,1,0.0,8,1
2013/11/10,0,8,1,0,8,1,1.5,8,1
2013/11/11,0,8,1,0,8,1,3.5,8,1
2013/11/12,14,8,1,21,8,1,12.5,8,1
2013/11/13,26,8,1,17,8,1,10.0,8,1
2013/11/14,17,8,1,3,8,1,0.0,8,1
2013/11/15,5,8,1,2,8,1,3.5,8,1
2013/11/16,0,8,1,0,8,1,0.0,8,1
2013/11/17,0,8,1,0,8,1,0.0,8,1
2013/11/18,0,8,1,0,8,1,0.0,8,1
2013/11/19,0,8,1,0,8,1,0.0,8,1
2013/11/20,0,8,1,0,8,1,0.0,8,1
2013/11/21,0,8,1,0,8,1,0.5,8,1
2013/11/22,0,8,1,0,8,1,5.0,8,1
2013/11/23,0,8,1,0,8,1,2.0,8,1
2013/11/24,0,8,1,0,8,1,0.0,8,1
2013/11/25,0,8,1,0,8,1,6.5,8,1
2013/11/26,0,8,1,0,8,1,0.5,8,1
2013/11/27,0,8,1,0,8,1,0.0,8,1
2013/11/28,0,8,1,0,8,1,0.0,8,1
2013/11/29,10,8,1,10,8,1,7.5,8,1
2013/11/30,11,8,1,5,8,1,1.0,8,1
2013/12/1,2,8,1,1,8,1,0.0,8,1
2013/12/2,0,8,1,0,8,1,0.0,8,1
2013/12/3,0,8,1,0,8,1,0.5,8,1
2013/12/4,0,8,1,0,8,1,0.5,8,1
2013/12/5,0,8,1,0,8,1,0.0,8,1
2013/12/6,0,8,1,0,8,1,2.0,8,1
2013/12/7,0,8,1,0,8,1,2.5,8,1
2013/12/8,1,8,1,1,8,1,2.0,8,1
2013/12/9,0,8,1,0,8,1,0.0,8,1
2013/12/10,2,8,1,2,8,1,14.5,8,1
2013/12/11,2,8,1,1,8,1,0.5,8,1
2013/12/12,11,8,1,14,8,1,7.5,8,1
2013/12/13,7,8,1,7,8,1,2.0,8,1
2013/12/14,22,8,1,23,8,1,8.5,8,1
2013/12/15,78,8,1,59,8,1,36.0,8,1
2013/12/16,92,8,1,14,8,1,22.0,8,1
2013/12/17,75,8,1,0,8,1,0.0,8,1
2013/12/18,61,8,1,4,8,1,3.0,8,1
2013/12/19,61,8,1,5,8,1,7.0,8,1
2013/12/20,49,8,1,6,8,1,10.5,8,1
2013/12/21,56,8,1,20,8,1,12.5,8,1
2013/12/22,76,8,1,22,8,1,16.0,8,1
2013/12/23,69,8,1,2,8,1,0.5,8,1
2013/12/24,77,8,1,20,8,1,8.0,8,1
2013/12/25,77,8,1,1,8,1,0.5,8,1
2013/12/26,64,8,1,1,8,1,1.5,8,1
2013/12/27,72,8,1,17,8,1,6.0,8,1
2013/12/28,82,8,1,18,8,1,7.5,8,1
2013/12/29,85,8,1,5,8,1,3.0,8,1
2013/12/30,75,8,1,2,8,1,0.0,8,1
2013/12/31,70,8,1,5,8,1,0.5,8,1
2014/1/1,71,8,1,7,8,1,4.0,8,1
2014/1/2,90,8,1,20,8,1,9.0,8,1
2014/1/3,86,8,1,0,8,1,0.0,8,1
2014/1/4,84,8,1,11,8,1,3.0,8,1
2014/1/5,83,8,1,1,8,1,0.0,8,1
2014/1/6,101,8,1,23,8,1,9.0,8,1
2014/1/7,93,8,1,0,8,1,0.0,8,1
2014/1/8,86,8,1,1,8,1,6.5,8,1
2014/1/9,86,8,1,10,8,1,3.5,8,1
2014/1/10,96,8,1,15,8,1,6.0,8,1
2014/1/11,120,8,1,25,8,1,11.0,8,1
2014/1/12,113,8,1,14,8,1,4.5,8,1
2014/1/13,124,8,1,14,8,1,9.5,8,1
2014/1/14,117,8,1,1,8,1,0.0,8,1
2014/1/15,110,8,1,0,8,1,0.0,8,1
2014/1/16,103,8,1,3,8,1,0.0,8,1
2014/1/17,102,8,1,5,8,1,0.0,8,1
2014/1/18,103,8,1,10,8,1,2.0,8,1
2014/1/19,140,8,1,38,8,1,20.5,8,1
2014/1/20,134,8,1,0,8,1,0.0,8,1
2014/1/21,121,8,1,3,8,1,0.0,8,1
2014/1/22,134,8,1,27,8,1,8.0,8,1
2014/1/23,139,8,1,7,8,1,3.5,8,1
2014/1/24,128,8,1,0,8,1,0.0,8,1
2014/1/25,119,8,1,0,8,1,0.0,8,1
2014/1/26,118,8,1,9,8,1,4.0,8,1
2014/1/27,112,8,1,2,8,1,0.0,8,1
2014/1/28,107,8,1,6,8,1,1.0,8,1
2014/1/29,109,8,1,8,8,1,0.5,8,1
2014/1/30,104,8,1,2,8,1,0.0,8,1
2014/1/31,113,8,1,16,8,1,16.5,8,1
2014/2/1,111,8,1,2,8,1,0.0,8,1
2014/2/2,105,8,1,3,8,1,0.0,8,1
2014/2/3,101,8,1,1,8,1,0.0,8,1
2014/2/4,101,8,1,9,8,1,1.0,8,1
2014/2/5,127,8,1,26,8,1,13.5,8,1
2014/2/6,121,8,1,1,8,1,0.0,8,1
2014/2/7,115,8,1,0,8,1,0.0,8,1
2014/2/8,135,8,1,25,8,1,13.0,8,1
2014/2/9,137,8,1,11,8,1,4.5,8,1
2014/2/10,137,8,1,5,8,1,2.5,8,1
2014/2/11,128,8,1,0,8,1,0.0,8,1
2014/2/12,125,8,1,1,8,1,0.0,8,1
2014/2/13,120,8,1,1,8,1,0.0,8,1
2014/2/14,137,8,1,20,8,1,16.5,8,1
2014/2/15,165,8,1,34,8,1,49.0,8,1
2014/2/16,167,8,1,12,8,1,9.0,8,1
2014/2/17,170,8,1,6,8,1,3.0,8,1
2014/2/18,168,8,1,9,8,1,1.5,8,1
2014/2/19,166,8,1,2,8,1,0.0,8,1
2014/2/20,158,8,1,2,8,1,0.0,8,1
2014/2/21,158,8,1,9,8,1,1.5,8,1
2014/2/22,162,8,1,8,8,1,1.0,8,1
2014/2/23,162,8,1,4,8,1,0.0,8,1
2014/2/24,149,8,1,2,8,1,0.0,8,1
2014/2/25,154,8,1,14,8,1,4.5,8,1
2014/2/26,152,8,1,1,8,1,0.0,8,1
2014/2/27,143,8,1,3,8,1,0.0,8,1
2014/2/28,141,8,1,2,8,1,1.5,8,1
2014/3/1,137,8,1,1,8,1,0.5,8,1
2014/3/2,136,8,1,6,8,1,4.0,8,1
2014/3/3,134,8,1,3,8,1,0.5,8,1
2014/3/4,132,8,1,4,8,1,0.0,8,1
2014/3/5,142,8,1,17,8,1,19.5,8,1
2014/3/6,161,8,1,29,8,1,13.5,8,1
2014/3/7,167,8,1,12,8,1,8.5,8,1
2014/3/8,176,8,1,15,8,1,8.5,8,1
2014/3/9,174,8,1,2,8,1,0.5,8,1
2014/3/10,196,8,1,43,8,1,23.0,8,1
2014/3/11,196,8,1,1,8,1,2.5,8,1
2014/3/12,178,8,1,6,8,1,1.0,8,1
2014/3/13,159,8,1,3,8,1,7.5,8,1
2014/3/14,151,8,1,4,8,1,0.5,8,1
2014/3/15,151,8,1,3,8,1,0.0,8,1
2014/3/16,143,8,1,5,8,1,3.0,8,1
2014/3/17,141,8,1,3,8,1,0.5,8,1
2014/3/18,135,8,1,6,8,1,11.0,8,1
2014/3/19,133,8,1,2,8,1,0.0,8,1
2014/3/20,127,8,1,5,8,1,12.0,8,1
2014/3/21,158,8,1,34,8,1,22.0,8,1
2014/3/22,157,8,1,2,8,1,0.5,8,1
2014/3/23,140,8,1,3,8,1,0.0,8,1
2014/3/24,132,8,1,3,8,1,0.0,8,1
2014/3/25,125,8,1,1,8,1,0.0,8,1
2014/3/26,120,8,1,2,8,1,0.5,8,1
2014/3/27,116,8,1,0,8,1,1.0,8,1
2014/3/28,111,8,1,1,8,1,0.0,8,1
2014/3/29,104,8,1,3,8,1,0.0,8,1
2014/3/30,95,8,1,3,8,1,30.5,8,1
2014/3/31,89,8,1,5,8,1,10.5,8,1
2014/4/1,75,8,1,1,8,1,0.0,8,1
2014/4/2,68,8,1,2,8,1,0.0,8,1
2014/4/3,62,8,1,3,8,1,3.0,8,1
2014/4/4,58,8,1,3,8,1,5.5,8,1
2014/4/5,71,8,1,18,8,1,6.0,8,1
2014/4/6,66,8,1,22,8,1,6.0,8,1
2014/4/7,64,8,1,3,8,1,0.0,8,1
2014/4/8,48,8,1,5,8,1,0.0,8,1
2014/4/9,43,8,1,2,8,1,0.0,8,1
2014/4/10,36,8,1,4,8,1,2.0,8,1
2014/4/11,32,8,1,1,8,1,0.0,8,1
2014/4/12,26,8,1,2,8,1,0.0,8,1
2014/4/13,21,8,1,3,8,1,0.0,8,1
2014/4/14,16,8,1,3,8,1,0.0,8,1
2014/4/15,9,8,1,1,8,1,0.5,8,1
2014/4/16,0,8,1,0,8,1,0.0,8,1
2014/4/17,0,8,1,0,8,1,0.0,8,1
2014/4/18,0,8,1,0,8,1,2.0,8,1
2014/4/19,0,8,1,0,8,1,0.0,8,1
2014/4/20,0,8,1,0,8,1,0.0,8,1
2014/4/21,0,8,1,0,8,1,7.5,8,1
2014/4/22,0,8,1,0,8,1,0.0,8,1
2014/4/23,0,8,1,0,8,1,0.0,8,1
2014/4/24,0,8,1,0,8,1,0.0,8,1
2014/4/25,0,8,1,0,8,1,0.0,8,1
2014/4/26,0,8,1,0,8,1,0.0,8,1
2014/4/27,0,8,1,0,8,1,0.0,8,1
2014/4/28,0,8,1,0,8,1,0.0,8,1
2014/4/29,0,8,1,0,8,1,0.0,8,1
2014/4/30,0,8,1,0,8,1,11.5,8,1
2014/5/1,0,8,1,0,8,1,4.0,8,1
2014/5/2,0,8,1,0,8,1,0.0,8,1
2014/5/3,0,8,1,0,8,1,0.5,8,1
2014/5/4,0,8,1,0,8,1,0.5,8,1
2014/5/5,0,8,1,0,8,1,4.0,8,1
2014/5/6,0,8,1,0,8,1,2.5,8,1
2014/5/7,0,8,1,0,8,1,0.0,8,1
2014/5/8,0,8,1,0,8,1,0.5,8,1
2014/5/9,0,8,1,0,8,1,3.5,8,1
2014/5/10,0,8,1,0,8,1,1.0,8,1
2014/5/11,0,8,1,0,8,1,0.0,8,1
2014/5/12,0,8,1,0,8,1,1.5,8,1
2014/5/13,0,8,1,0,8,1,1.5,8,1
2014/5/14,0,8,1,0,8,1,0.0,8,1
2014/5/15,0,8,1,0,8,1,0.5,8,1
2014/5/16,0,8,1,0,8,1,3.5,8,1
2014/5/17,0,8,1,0,8,1,1.5,8,1
2014/5/18,0,8,1,0,8,1,0.0,8,1
2014/5/19,0,8,1,0,8,1,0.0,8,1
2014/5/20,0,8,1,0,8,1,0.0,8,1
2014/5/21,0,8,1,0,8,1,22.5,8,1
2014/5/22,0,8,1,0,8,1,19.0,8,1
2014/5/23,0,8,1,0,8,1,0.5,8,1
2014/5/24,0,8,1,0,8,1,0.0,8,1
2014/5/25,0,8,1,0,8,1,0.0,8,1
2014/5/26,0,8,1,0,8,1,17.0,8,1
2014/5/27,0,8,1,0,8,1,2.0,8,1
2014/5/28,0,8,1,0,8,1,0.0,8,1
2014/5/29,0,8,1,0,8,1,0.0,8,1
2014/5/30,0,8,1,0,8,1,0.0,8,1
2014/5/31,0,8,1,0,8,1,0.0,8,1
2014/6/1,0,8,1,0,8,1,0.0,8,1
2014/6/2,0,8,1,0,8,1,0.0,8,1
2014/6/3,0,8,1,0,8,1,0.0,8,1
2014/6/4,0,8,1,0,8,1,0.0,8,1
2014/6/5,0,8,1,0,8,1,0.0,8,1
2014/6/6,0,8,1,0,8,1,9.0,8,1
2014/6/7,0,8,1,0,8,1,10.0,8,1
2014/6/8,0,8,1,0,8,1,31.5,8,1
2014/6/9,0,8,1,0,8,1,0.0,8,1
2014/6/10,0,8,1,0,8,1,0.5,8,1
2014/6/11,0,8,1,0,8,1,4.0,8,1
2014/6/12,0,8,1,0,8,1,21.0,8,1
2014/6/13,0,8,1,0,8,1,1.5,8,1
2014/6/14,0,8,1,0,8,1,1.0,8,1
2014/6/15,0,8,1,0,8,1,0.0,8,1
2014/6/16,0,8,1,0,8,1,0.0,8,1
2014/6/17,0,8,1,0,8,1,0.0,8,1
2014/6/18,0,8,1,0,8,1,7.5,8,1